SITRO-AIS 6 (CHIRKIN)

Last updated on Mon Sep 21 2026 00:03:45 GMT+0000 (Coordinated Universal Time)

1 57192U 23091AC 26263.60785033 .00007029 00000+0 26370-3 0 9998 2 57192 97.4971 327.0839 0012410 126.4868 233.7516 15.27476760178848
UTC large
Height (km)
Speed (km/s)
/
Latitude / Longitude
Inclination (degrees)
Orbital Period (minutes)
Azimuth
Elevation
Range (km)
Doppler Factor

Next 0 passes for location: London (51.5072 / 0.1276)

No passes found over London.
SITRO-AIS 6 (CHIRKIN)